Perry Municipal Airport
Tuesday 8:15 PM
Temperature70° (85°/53°)
Dew Point40°
Relative Humidity34
%
Visibility10
mi
Pressure1004.7
mb
Wind DirectionNW
310°
Wind Speed8
mph
Precipitation Today0.00"

Last 30 Observations

Time PresWx Temp DP Feels RH% Vsby Pressure Ceiling Direction Speed 1h Precip
7:55 PM 72° 39° 29
%
10
mi
1004.4
mb
WNW
300°
9
mph
0.00"
7:35 PM 75° 38° 27
%
10
mi
1004.1
mb
NW
320°
10
mph
0.00"
7:15 PM 78° 37° 23
%
10
mi
1004.1
mb
NW
310°
8
mph
0.00"
6:55 PM 79° 37° 22
%
10
mi
1003.7
mb
NW
310°
11
mph
0.00"
6:35 PM 81° 35° 20
%
10
mi
1003.7
mb
WNW
300°
15
mph
0.00"
6:15 PM 82° 35° 19
%
10
mi
1003.7
mb
NW
310°
16
mph
0.00"
5:55 PM 82° 35° 18
%
10
mi
1003.7
mb
WNW
290°
20
mph
0.00"
5:35 PM 83° 10
mi
1003.4
mb
WNW
300°
16
mph
0.00"
5:15 PM 83° 10
mi
1003.4
mb
WNW
290°
21
mph
(G28)
0.00"
4:55 PM 84° 10
mi
1003.4
mb
W
280°
17
mph
(G26)
0.00"
4:35 PM 85° 10
mi
1003.4
mb
WNW
290°
23
mph
0.00"
4:15 PM 85° 10
mi
1003.4
mb
WNW
290°
11
mph
(G24)
0.00"
3:55 PM 84° 44° 25
%
10
mi
1003.4
mb
W
260°
16
mph
(G22)
0.00"
3:35 PM 83° 49° 31
%
10
mi
1003.7
mb
W
260°
6
mph
0.00"
3:15 PM 82° 48° 31
%
10
mi
1004.1
mb
NW
310°
7
mph
(G18)
0.00"
2:55 PM 81° 49° 34
%
10
mi
1004.1
mb
W
280°
7
mph
0.00"
2:35 PM 79° 53° 40
%
10
mi
1004.4
mb
W
270°
9
mph
0.00"
2:15 PM 79° 54° 41
%
10
mi
1004.8
mb
WSW
250°
9
mph
0.00"
1:55 PM 78° 54° 43
%
10
mi
1004.8
mb
W
260°
10
mph
0.00"
1:35 PM 76° 55° 48
%
10
mi
1004.8
mb
WSW
250°
10
mph
0.00"
1:15 PM 75° 55° 49
%
10
mi
1005.1
mb
WSW
240°
10
mph
0.00"
12:35 PM 74° 55° 52
%
10
mi
1005.4
mb
W
270°
14
mph
0.00"
12:15 PM 73° 56° 55
%
10
mi
1006.1
mb
WNW
290°
11
mph
0.00"
11:55 AM 72° 56° 57
%
10
mi
1006.1
mb
WSW
250°
11
mph
(G20)
0.00"
11:35 AM 71° 57° 61
%
10
mi
1006.4
mb
W
270°
14
mph
0.00"
11:15 AM 70° 57° 63
%
10
mi
1005.8
mb
WSW
240°
10
mph
0.00"
10:55 AM 69° 58° 69
%
10
mi
1006.1
mb
WSW
250°
10
mph
0.00"
10:35 AM 68° 59° 73
%
10
mi
1006.1
mb
WSW
240°
13
mph
0.00"
10:15 AM 66° 59° 77
%
10
mi
1006.4
mb
WSW
240°
11
mph
0.00"
9:35 AM 63° 58° 86
%
7
mi
1005.8
mb
SW
220°
13
mph
0.00"